Weather History for Roxboro, NC

Change the Weather History Date:

Thursday, June 21, 2012

  Actual Average Record
Temperature  
Mean Temperature 78 °F -  
Max Temperature 91 °F 86 °F 96 °F (1964)
Min Temperature 66 °F 62 °F 53 °F (1966)
Cooling Degree Days 14    
Growing Degree Days 28 (Base 50)    
Moisture  
Dew Point 70 °F    
Average Humidity 77    
Maximum Humidity 100    
Minimum Humidity 41    
Precipitation  
Precipitation 0.00 in - - ()
Sea Level Pressure  
Sea Level Pressure 30.01 in    
Wind  
Wind Speed 1 mph (WSW)    
Max Wind Speed 13 mph    
Max Gust Speed -    
Visibility 9 miles    
Events      
Averages and records for this station are not official NWS values.
T = Trace of Precipitation, MM = Missing Value Source: NWS Daily Summary

Daily Weather History Graph

Daily Weather History Graph

Search for Another Location

Airport:

Trip Planner

Search our weather history database for the weather conditions in past years. The results will help you decide how hot, cold, wet, or windy it might be!

Date:

Astronomy

Jun. 21, 2012 Rise Set
Actual Time 5:58 AM EDT 8:36 PM EDT
Civil Twilight 5:28 AM EDT 9:07 PM EDT
Nautical Twilight 4:50 AM EDT 9:45 PM EDT
Astronomical Twilight 4:08 AM EDT 10:27 PM EDT
Moon 7:52 AM EDT (6/21) 10:03 PM EDT (6/21)
Length of Visible Light 15h 39m
Length of Day
14h 38m
Waxing Crescent, 4% of the Moon is Illuminated
Jun 21
Waxing Crescent
Jun 26
First Quarter
Jul 3
Full
Jul 10
Last Quarter
Jul 19
New

Hourly Weather History & Observations

Time (EDT) Temp. Heat Index Dew Point Humidity Pressure Visibility Wind Dir Wind Speed Gust Speed Precip Events Conditions
12:35 AM 69.8 °F - 69.8 °F 100% 30.08 in 3.0 mi Calm Calm - N/A   Clear
12:55 AM 69.8 °F - 69.8 °F 100% 30.08 in 3.0 mi Calm Calm - N/A   Clear
1:15 AM 69.8 °F - 69.8 °F 100% 30.08 in 3.0 mi Calm Calm - N/A   Clear
1:35 AM 69.8 °F - 69.8 °F 100% 30.08 in 7.0 mi Calm Calm - N/A   Clear
1:55 AM 69.8 °F - 69.8 °F 100% 30.08 in 10.0 mi Calm Calm - N/A   Clear
2:15 AM 69.8 °F - 69.8 °F 100% 30.08 in 7.0 mi Calm Calm - N/A   Clear
2:35 AM 69.8 °F - 69.8 °F 100% 30.07 in 10.0 mi Calm Calm - N/A   Clear
2:55 AM 69.8 °F - 69.8 °F 100% 30.07 in 10.0 mi Calm Calm - N/A   Clear
3:15 AM 69.8 °F - 69.8 °F 100% 30.07 in 10.0 mi Calm Calm - N/A   Clear
3:35 AM 69.8 °F - 69.8 °F 100% 30.07 in 10.0 mi Calm Calm - N/A   Clear
3:55 AM 69.8 °F - 69.8 °F 100% 30.07 in 10.0 mi Calm Calm - N/A   Clear
4:15 AM 69.8 °F - 69.8 °F 100% 30.06 in 10.0 mi Calm Calm - N/A   Clear
4:35 AM 68.0 °F - 68.0 °F 100% 30.06 in 7.0 mi Calm Calm - N/A   Clear
4:55 AM 68.0 °F - 68.0 °F 100% 30.06 in 5.0 mi Calm Calm - N/A   Clear
5:15 AM 68.0 °F - 68.0 °F 100% 30.06 in 4.0 mi Calm Calm - N/A   Clear
5:35 AM 68.0 °F - 68.0 °F 100% 30.07 in 2.5 mi Calm Calm - N/A   Clear
5:55 AM 68.0 °F - 68.0 °F 100% 30.07 in 2.5 mi Calm Calm - N/A   Clear
6:15 AM 68.0 °F - 68.0 °F 100% 30.07 in 1.5 mi Calm Calm - N/A   Mist
6:35 AM 66.2 °F - 66.2 °F 100% 30.07 in 4.0 mi Calm Calm - N/A   Clear
6:55 AM 68.0 °F - 68.0 °F 100% 30.07 in 5.0 mi Calm Calm - N/A   Clear
7:15 AM 69.8 °F - 69.8 °F 100% 30.08 in 10.0 mi Calm Calm - N/A   Clear
7:35 AM 71.6 °F - 71.6 °F 100% 30.08 in 10.0 mi Calm Calm - N/A   Clear
7:55 AM 73.4 °F - 71.6 °F 94% 30.08 in 10.0 mi Calm Calm - N/A   Clear
8:15 AM 75.2 °F - 71.6 °F 89% 30.08 in 10.0 mi Calm Calm - N/A   Clear
8:35 AM 77.0 °F - 71.6 °F 83% 30.08 in 10.0 mi WNW 3.5 mph - N/A   Clear
8:55 AM 78.8 °F - 71.6 °F 78% 30.07 in 10.0 mi WNW 3.5 mph - N/A   Clear
9:15 AM 80.6 °F 84.6 °F 71.6 °F 74% 30.07 in 10.0 mi WNW 3.5 mph - N/A   Clear
9:35 AM 80.6 °F 84.6 °F 71.6 °F 74% 30.07 in 10.0 mi NW 3.5 mph - N/A   Clear
9:55 AM 82.4 °F 87.2 °F 71.6 °F 70% 30.06 in 10.0 mi Calm Calm - N/A   Clear
10:15 AM 86.0 °F 91.8 °F 71.6 °F 62% 30.06 in 10.0 mi Calm Calm - N/A   Clear
10:35 AM 86.0 °F 90.4 °F 69.8 °F 58% 30.05 in 10.0 mi Calm Calm - N/A   Mostly Cloudy
10:55 AM 86.0 °F 91.8 °F 71.6 °F 62% 30.05 in 10.0 mi WSW 4.6 mph - N/A   Scattered Clouds
11:15 AM 87.8 °F 93.8 °F 71.6 °F 58% 30.04 in 10.0 mi Calm Calm - N/A   Clear
11:35 AM 87.8 °F 93.8 °F 71.6 °F 58% 30.04 in 10.0 mi Calm Calm - N/A   Clear
11:55 AM 87.8 °F 92.6 °F 69.8 °F 55% 30.04 in 10.0 mi Calm Calm - N/A   Clear
12:15 PM 87.8 °F 92.6 °F 69.8 °F 55% 30.03 in 10.0 mi SW 5.8 mph - N/A   Clear
12:35 PM 89.6 °F 93.4 °F 68.0 °F 49% 30.02 in 10.0 mi NW 3.5 mph - N/A   Clear
12:55 PM 89.6 °F 91.1 °F 64.4 °F 43% 30.02 in 10.0 mi Calm Calm - N/A   Clear
1:15 PM 89.6 °F 93.4 °F 68.0 °F 49% 30.01 in 10.0 mi Calm Calm - N/A   Clear
1:35 PM 89.6 °F 92.2 °F 66.2 °F 46% 30.01 in 10.0 mi NW 4.6 mph - N/A   Clear
1:55 PM 91.4 °F 95.4 °F 68.0 °F 46% 30.00 in 10.0 mi West 3.5 mph - N/A   Clear
2:15 PM 91.4 °F 95.4 °F 68.0 °F 46% 29.99 in 10.0 mi WSW 6.9 mph - N/A   Clear
2:35 PM 91.4 °F 95.4 °F 68.0 °F 46% 29.98 in 10.0 mi SW 6.9 mph - N/A   Clear
2:55 PM 91.4 °F 95.4 °F 68.0 °F 46% 29.97 in 10.0 mi SW 4.6 mph - N/A   Clear
3:15 PM 91.4 °F 94.0 °F 66.2 °F 43% 29.97 in 10.0 mi WSW 6.9 mph - N/A   Clear
3:35 PM 91.4 °F 94.0 °F 66.2 °F 43% 29.96 in 10.0 mi West 3.5 mph - N/A   Clear
3:55 PM 91.4 °F 93.2 °F 64.4 °F 41% 29.95 in 10.0 mi South 3.5 mph - N/A   Clear
4:15 PM 91.4 °F 96.8 °F 69.8 °F 49% 29.94 in 10.0 mi South 8.1 mph - N/A   Clear
4:35 PM 89.6 °F 94.7 °F 69.8 °F 52% 29.94 in 10.0 mi South 8.1 mph - N/A   Clear
4:55 PM 89.6 °F 96.2 °F 71.6 °F 55% 29.93 in 10.0 mi South 6.9 mph - N/A   Clear
5:15 PM 89.6 °F 96.2 °F 71.6 °F 55% 29.93 in 10.0 mi SSW 6.9 mph - N/A   Clear
5:35 PM 87.8 °F 93.8 °F 71.6 °F 58% 29.92 in 10.0 mi South 8.1 mph - N/A   Clear
5:55 PM 87.8 °F 93.8 °F 71.6 °F 58% 29.93 in 10.0 mi SSW 12.7 mph - N/A   Clear
6:15 PM 86.0 °F 91.8 °F 71.6 °F 62% 29.93 in 10.0 mi South 3.5 mph - N/A   Clear
6:35 PM 84.2 °F 88.4 °F 69.8 °F 62% 29.93 in 10.0 mi Calm Calm - N/A   Clear
6:55 PM 82.4 °F 86.3 °F 69.8 °F 66% 29.93 in 10.0 mi Calm Calm - N/A   Clear
7:15 PM 82.4 °F 87.2 °F 71.6 °F 70% 29.93 in 10.0 mi Calm Calm - N/A   Clear
7:35 PM 82.4 °F 87.2 °F 71.6 °F 70% 29.93 in 10.0 mi Calm Calm - N/A   Clear
7:55 PM 82.4 °F 87.2 °F 71.6 °F 70% 29.93 in 10.0 mi Calm Calm - N/A   Clear
8:15 PM 80.6 °F 85.4 °F 73.4 °F 79% 29.92 in 10.0 mi Calm Calm - N/A   Clear
8:35 PM 80.6 °F 85.4 °F 73.4 °F 79% 29.92 in 10.0 mi SSW 3.5 mph - N/A   Clear
8:55 PM 80.6 °F 85.4 °F 73.4 °F 79% 29.92 in 10.0 mi Calm Calm - N/A   Clear
9:15 PM 77.0 °F - 73.4 °F 89% 29.92 in 10.0 mi Calm Calm - N/A   Clear
9:35 PM 78.8 °F - 73.4 °F 83% 29.92 in 10.0 mi Calm Calm - N/A   Clear
9:55 PM 77.0 °F - 73.4 °F 89% 29.93 in 10.0 mi Calm Calm - N/A   Clear
10:15 PM 77.0 °F - 73.4 °F 89% 29.93 in 10.0 mi Calm Calm - N/A   Clear
10:35 PM 73.4 °F - 73.4 °F 100% 29.94 in 10.0 mi Calm Calm - N/A   Clear
10:55 PM 75.2 °F - 71.6 °F 89% 29.94 in 10.0 mi Calm Calm - N/A   Clear
11:15 PM 75.2 °F - 71.6 °F 89% 29.95 in 10.0 mi Calm Calm - N/A   Clear
11:35 PM 73.4 °F - 71.6 °F 94% 29.94 in 10.0 mi Calm Calm - N/A   Clear
11:55 PM 75.2 °F - 71.6 °F 89% 29.95 in 10.0 mi Calm Calm - N/A   Mostly Cloudy